ONEWEB-0110 (47260 NORAD) Tracking and Keplerian Element Data

This shows tracking and keplerian element data for the satellite.

Feedback or suggestion? Click here.




ElementValue
Catalog47260
NameONEWEB-0110
Epoch Orbit1708
Epoch Day106.25002315
Epoch Year2021
RAAN5.9898
Inclination87.9412
Eccentricity0.0001739
Argument of Perigee72.0394
Mean Anonmoly81.246
Mean Motion13.24907057
Decay Rate1.3E-07
L11 47260U 20100C 21106.25002315 .00000013 00000-0 00000+0 0 9993
L22 47260 87.9412 5.9898 0001739 72.0394 81.2460 13.24907057 17081

Live tracking and technical data element details for ONEWEB-0110 (NORAD 47260). ONEWEB-0110 can be tracked NOW for your location showing map with azimuth and elevation plus other details from your city location.

Track the satellite on the map from your city or location and see movement details for azimuth, elevation, latitude, longitude, range, height, and movement on the map or in text.







IsCatalogInMostPopularTable: catalog: 47260, numindb: 33
Update: records affected: 1



GetName: 47260 ONEWEB-0110

Hit Count: updated at: Fri, 16 Apr 2021 10:27:33 GMT